Find Starlink 5739

NORAD ID: 55571 Int'l Des: 2023-020 Owner: SPXS Country: US Constellation: starlink operational
LEOCIRCULAR

Current View

Loading 3D Globe...

About Starlink 5739

Starlink 5739 (NORAD 55571) is a starlink constellation satellite (v1.5) launched Feb 12, 2023 by SPXS of US. It operates in LEO, CIRCULAR orbit with a mass of 305.00 kg.

About Starlink 5739

Description loading...

Upcoming Passes

Passes for default location (London). Set your location on the main map for personalized predictions.

Altitude History

Loading altitude history...

Two-Line Element Set

1 55571U 23020C 26171.22028299 -.00000188 00000-0 27049-5 0 9996
2 55571 43.0003 149.5621 0001205 259.1060 100.9656 15.27572181184553
Epoch: Jun 20, 2026 • Age: 16 hours

Current Status

Altitude 486.0 km
Velocity 7.63 km/s
Sub-Earth Point 38.69°N, 35.85°E
Launch Date Feb 12, 2023
Age 3.3 years
Type internet

Technical Details

Classification Payload
Mass 305.00 kg
Dry Mass 290.00 kg
Total Mass 305.00 kg
Length 0.20 m
Diameter 2.80 m
Span 9.00 m
Shape Box + pan
Manufacturer SPXS
Bus Type Starlink
Phase Status In Orbit
Owner/State SPXS/US

Most Searched